When you browse on this site, cookies collect data to enhance your experience and personalize the content and advertising you see.
Visit our Privacy Policy to learn more. By continuing to use the site, you agree to this use of cookies and data.
  • In Switzerland
  • List of Countries
  • For 7 days
  • Water Temperature
  • Weather Map
  • Weather Widgets
  • user-avatar
    Login

    Hourly Weather Tykhonivka

    Today, 27 February, Thursday

    Time Temperature Precipitation Wind Pressure Humidity
    00:00 +6°C° 0 mm 4 mps 726 mmHg 77%
    01:00 +5°C° 0 mm 4 mps 726 mmHg 78%
    02:00 +5°C° 0 mm 3 mps 726 mmHg 80%
    03:00 +4°C° 0 mm 3 mps 726 mmHg 83%
    04:00 +5°C° 0 mm 2 mps 726 mmHg 86%
    05:00 +5°C° 0 mm 2 mps 726 mmHg 88%
    06:00 +5°C° 0.1 mm 2 mps 727 mmHg 89%
    07:00 +5°C° 0.1 mm 2 mps 727 mmHg 90%
    08:00 +5°C° 0.1 mm 2 mps 727 mmHg 91%
    09:00 +4°C° 1 mm 3 mps 727 mmHg 90%
    10:00 +4°C° 1 mm 3 mps 727 mmHg 89%
    11:00 +4°C° 1 mm 4 mps 727 mmHg 89%
    12:00 +4°C° 0.2 mm 4 mps 727 mmHg 88%
    13:00 +4°C° 0.2 mm 4 mps 727 mmHg 87%
    14:00 +4°C° 0.2 mm 4 mps 727 mmHg 86%
    15:00 +3°C° 1.3 mm 4 mps 728 mmHg 85%
    16:00 +2°C° 1.3 mm 5 mps 728 mmHg 85%
    17:00 +1°C° 1.3 mm 5 mps 728 mmHg 85%
    18:00 +1°C° 0.1 mm 5 mps 728 mmHg 85%
    19:00 +1°C° 0.1 mm 4 mps 729 mmHg 85%
    20:00 +2°C° 0.1 mm 3 mps 729 mmHg 85%
    21:00 +2°C° 0 mm 3 mps 728 mmHg 82%
    22:00 +1°C° 0 mm 4 mps 728 mmHg 80%
    23:00 0°C° 0 mm 5 mps 728 mmHg 78%

    Tomorrow, 28 February, Friday

    Time Temperature Precipitation Wind Pressure Humidity
    00:00 0°C° 0 mm 5 mps 728 mmHg 77%
    01:00 0°C° 0 mm 5 mps 728 mmHg 77%
    02:00 -1°C° 0 mm 6 mps 729 mmHg 76%
    03:00 -1°C° 0 mm 6 mps 729 mmHg 77%
    04:00 -1°C° 0 mm 5 mps 729 mmHg 78%
    05:00 -1°C° 0 mm 5 mps 730 mmHg 78%
    06:00 -1°C° 0 mm 5 mps 731 mmHg 78%
    07:00 -1°C° 0 mm 5 mps 731 mmHg 78%
    08:00 -1°C° 0 mm 5 mps 732 mmHg 77%
    09:00 0°C° 0 mm 5 mps 733 mmHg 70%
    10:00 +1°C° 0 mm 5 mps 733 mmHg 63%
    11:00 +2°C° 0 mm 5 mps 734 mmHg 56%
    12:00 +2°C° 0 mm 5 mps 734 mmHg 55%
    13:00 +3°C° 0 mm 5 mps 735 mmHg 54%
    14:00 +4°C° 0 mm 4 mps 735 mmHg 53%
    15:00 +4°C° 0 mm 4 mps 735 mmHg 55%
    16:00 +4°C° 0 mm 3 mps 735 mmHg 58%
    17:00 +5°C° 0 mm 2 mps 735 mmHg 60%
    18:00 +4°C° 0 mm 2 mps 736 mmHg 63%
    19:00 +4°C° 0 mm 2 mps 736 mmHg 66%
    20:00 +4°C° 0 mm 1 mps 737 mmHg 69%
    21:00 +4°C° 0 mm 1 mps 737 mmHg 69%
    22:00 +4°C° 0 mm 1 mps 737 mmHg 69%
    23:00 +4°C° 0 mm 1 mps 737 mmHg 69%

    Day after tomorrow, 29 February, Saturday

    Time Temperature Precipitation Wind Pressure Humidity
    00:00 +4°C° 0 mm 1 mps 738 mmHg 70%
    01:00 +4°C° 0 mm 1 mps 738 mmHg 71%
    02:00 +2°C° 0 mm 2 mps 738 mmHg 72%
    03:00 +2°C° 0 mm 2 mps 738 mmHg 73%
    04:00 +2°C° 0 mm 2 mps 738 mmHg 74%
    05:00 +2°C° 0 mm 2 mps 738 mmHg 74%
    06:00 +2°C° 0 mm 2 mps 739 mmHg 76%
    07:00 +2°C° 0 mm 2 mps 739 mmHg 78%
    08:00 +2°C° 0 mm 2 mps 740 mmHg 80%
    09:00 +3°C° 0 mm 2 mps 740 mmHg 73%
    10:00 +3°C° 0 mm 3 mps 740 mmHg 67%
    11:00 +4°C° 0 mm 3 mps 741 mmHg 60%
    12:00 +4°C° 0 mm 3 mps 741 mmHg 56%
    13:00 +5°C° 0 mm 3 mps 741 mmHg 51%
    14:00 +5°C° 0 mm 3 mps 741 mmHg 47%
    15:00 +5°C° 0 mm 3 mps 741 mmHg 48%
    16:00 +6°C° 0 mm 2 mps 741 mmHg 49%
    17:00 +6°C° 0 mm 2 mps 741 mmHg 50%
    18:00 +6°C° 0 mm 1 mps 741 mmHg 54%
    19:00 +5°C° 0 mm 1 mps 742 mmHg 58%
    20:00 +4°C° 0 mm 1 mps 742 mmHg 62%
    21:00 +4°C° 0 mm 1 mps 742 mmHg 63%
    22:00 +3°C° 0 mm 1 mps 742 mmHg 64%
    23:00 +3°C° 0 mm 1 mps 743 mmHg 65%

    1 March, Sunday

    Time Temperature Precipitation Wind Pressure Humidity
    00:00 +2°C° 0 mm 2 mps 743 mmHg 66%
    01:00 +1°C° 0 mm 2 mps 743 mmHg 67%
    02:00 +1°C° 0 mm 2 mps 743 mmHg 69%
    03:00 +1°C° 0 mm 2 mps 743 mmHg 70%
    04:00 0°C° 0 mm 3 mps 743 mmHg 72%
    05:00 -1°C° 0 mm 3 mps 743 mmHg 73%
    06:00 -1°C° 0 mm 4 mps 743 mmHg 73%
    07:00 -1°C° 0 mm 4 mps 743 mmHg 73%
    08:00 0°C° 0 mm 5 mps 743 mmHg 74%
    09:00 +1°C° 0 mm 6 mps 743 mmHg 68%
    10:00 +3°C° 0 mm 7 mps 743 mmHg 63%
    11:00 +4°C° 0 mm 7 mps 743 mmHg 57%
    12:00 +5°C° 0 mm 8 mps 743 mmHg 55%
    13:00 +5°C° 0 mm 8 mps 742 mmHg 52%
    14:00 +6°C° 0 mm 8 mps 742 mmHg 50%
    15:00 +6°C° 0 mm 8 mps 742 mmHg 53%
    16:00 +5°C° 0 mm 7 mps 741 mmHg 56%
    17:00 +5°C° 0 mm 7 mps 741 mmHg 60%
    18:00 +4°C° 0 mm 7 mps 741 mmHg 63%
    19:00 +4°C° 0 mm 8 mps 741 mmHg 67%
    20:00 +2°C° 0 mm 8 mps 741 mmHg 70%
    21:00 +2°C° 0 mm 8 mps 741 mmHg 73%
    22:00 +1°C° 0 mm 8 mps 741 mmHg 76%
    23:00 +1°C° 0 mm 8 mps 741 mmHg 78%

    2 March, Monday

    Time Temperature Precipitation Wind Pressure Humidity
    00:00 +1°C° 0 mm 8 mps 741 mmHg 81%
    01:00 +1°C° 0 mm 8 mps 741 mmHg 84%
    02:00 0°C° 0 mm 7 mps 740 mmHg 86%
    03:00 0°C° 0 mm 7 mps 740 mmHg 86%
    04:00 0°C° 0 mm 8 mps 740 mmHg 87%
    05:00 0°C° 0 mm 8 mps 739 mmHg 87%
    06:00 +1°C° 0 mm 8 mps 739 mmHg 85%
    07:00 +1°C° 0 mm 8 mps 739 mmHg 84%
    08:00 +1°C° 0 mm 9 mps 739 mmHg 83%
    09:00 +2°C° 0 mm 9 mps 739 mmHg 77%
    10:00 +3°C° 0 mm 9 mps 739 mmHg 72%
    11:00 +5°C° 0 mm 10 mps 738 mmHg 66%
    12:00 +5°C° 0 mm 10 mps 738 mmHg 63%
    13:00 +5°C° 0 mm 10 mps 737 mmHg 60%
    14:00 +5°C° 0 mm 10 mps 737 mmHg 57%
    15:00 +5°C° 0 mm 10 mps 736 mmHg 58%
    16:00 +5°C° 0 mm 10 mps 736 mmHg 58%
    17:00 +5°C° 0 mm 9 mps 735 mmHg 59%
    18:00 +3°C° 0 mm 9 mps 735 mmHg 62%
    19:00 +3°C° 0 mm 9 mps 735 mmHg 66%
    20:00 +2°C° 0 mm 9 mps 734 mmHg 69%
    21:00 +2°C° 0.1 mm 9 mps 734 mmHg 73%
    22:00 +2°C° 0.1 mm 9 mps 734 mmHg 78%
    23:00 +2°C° 0.1 mm 9 mps 733 mmHg 82%

    3 March, Tuesday

    Time Temperature Precipitation Wind Pressure Humidity
    00:00 +2°C° 0.2 mm 9 mps 733 mmHg 84%
    01:00 +4°C° 0.2 mm 8 mps 733 mmHg 85%
    02:00 +4°C° 0.2 mm 8 mps 733 mmHg 87%
    03:00 +4°C° 0.4 mm 7 mps 733 mmHg 88%
    04:00 +4°C° 0.4 mm 6 mps 733 mmHg 89%
    05:00 +4°C° 0.4 mm 6 mps 733 mmHg 90%
    06:00 +5°C° 0.1 mm 5 mps 734 mmHg 90%
    07:00 +5°C° 0.1 mm 4 mps 734 mmHg 90%
    08:00 +5°C° 0.1 mm 4 mps 735 mmHg 90%
    09:00 +8°C° 0 mm 3 mps 735 mmHg 85%
    10:00 +9°C° 0 mm 3 mps 736 mmHg 79%
    11:00 +10°C° 0 mm 3 mps 737 mmHg 74%
    12:00 +12°C° 0 mm 2 mps 737 mmHg 71%
    13:00 +12°C° 0 mm 2 mps 737 mmHg 67%
    14:00 +12°C° 0 mm 2 mps 738 mmHg 64%
    15:00 +12°C° 0 mm 2 mps 738 mmHg 65%
    16:00 +12°C° 0 mm 1 mps 738 mmHg 66%
    17:00 +12°C° 0 mm 1 mps 738 mmHg 68%
    18:00 +10°C° 0 mm 2 mps 738 mmHg 71%
    19:00 +9°C° 0 mm 2 mps 738 mmHg 75%
    20:00 +8°C° 0 mm 3 mps 738 mmHg 79%
    21:00 +8°C° 0 mm 3 mps 738 mmHg 81%
    22:00 +8°C° 0 mm 3 mps 738 mmHg 82%
    23:00 +8°C° 0 mm 3 mps 738 mmHg 84%
    Show more